TimeMST,TemperatureF,Dew PointF,Humidity,Sea Level PressureIn,VisibilityMPH,Wind Direction,Wind SpeedMPH,Gust SpeedMPH,PrecipitationIn,Events,Conditions,WindDirDegrees,DateUTC
12:53 AM,32.0,27.0,82,30.17,10.0,WSW,4.6,-,N/A,,Clear,250,2012-11-07 07:53:00
1:53 AM,32.0,27.0,82,30.16,10.0,Calm,Calm,-,N/A,,Clear,0,2012-11-07 08:53:00
2:53 AM,28.9,24.1,82,30.14,10.0,Calm,Calm,-,N/A,,Clear,0,2012-11-07 09:53:00
3:53 AM,28.0,24.1,85,30.13,10.0,Calm,Calm,-,N/A,,Clear,0,2012-11-07 10:53:00
4:53 AM,27.0,23.0,85,30.15,10.0,Calm,Calm,-,N/A,,Clear,0,2012-11-07 11:53:00
5:53 AM,28.9,26.1,89,30.15,10.0,SSW,3.5,-,N/A,,Clear,210,2012-11-07 12:53:00
6:53 AM,30.0,26.1,85,30.15,10.0,Calm,Calm,-,N/A,,Clear,0,2012-11-07 13:53:00
7:53 AM,36.0,30.0,79,30.13,10.0,Calm,Calm,-,N/A,,Clear,0,2012-11-07 14:53:00
8:53 AM,45.0,32.0,60,30.11,10.0,SSW,5.8,-,N/A,,Clear,210,2012-11-07 15:53:00
9:53 AM,53.1,34.0,48,30.08,10.0,South,4.6,-,N/A,,Clear,180,2012-11-07 16:53:00
10:53 AM,62.1,34.0,35,30.03,10.0,South,8.1,-,N/A,,Clear,180,2012-11-07 17:53:00
11:53 AM,68.0,34.0,28,29.98,10.0,South,9.2,-,N/A,,Clear,180,2012-11-07 18:53:00
12:53 PM,72.0,34.0,25,29.93,10.0,South,13.8,-,N/A,,Clear,170,2012-11-07 19:53:00
1:53 PM,73.9,33.1,22,29.90,10.0,South,13.8,-,N/A,,Clear,170,2012-11-07 20:53:00
2:53 PM,73.9,33.1,22,29.89,10.0,South,11.5,-,N/A,,Clear,170,2012-11-07 21:53:00
3:53 PM,70.0,33.1,26,29.88,10.0,SSE,10.4,-,N/A,,Clear,150,2012-11-07 22:53:00
4:53 PM,59.0,33.1,38,29.91,10.0,SSE,11.5,-,N/A,,Clear,160,2012-11-07 23:53:00
5:53 PM,51.1,33.1,50,29.93,10.0,SSE,9.2,-,N/A,,Clear,150,2012-11-08 00:53:00
6:53 PM,55.9,35.1,45,29.91,10.0,South,11.5,-,N/A,,Clear,170,2012-11-08 01:53:00
7:53 PM,55.9,35.1,45,29.91,10.0,South,11.5,-,N/A,,Clear,170,2012-11-08 02:53:00
8:53 PM,54.0,35.1,49,29.89,10.0,South,11.5,17.3,N/A,,Clear,190,2012-11-08 03:53:00
9:53 PM,48.0,34.0,58,29.88,10.0,South,5.8,-,N/A,,Clear,180,2012-11-08 04:53:00
10:53 PM,43.0,33.1,68,29.87,10.0,WSW,4.6,-,N/A,,Clear,240,2012-11-08 05:53:00
11:53 PM,41.0,32.0,70,29.85,10.0,SW,4.6,-,N/A,,Clear,230,2012-11-08 06:53:00